Location: Killam
(52.7910°N, 111.8608°W)
Time: 05:29:07
(UTC+00:00)

Gurwin Techsat 1B - Pass Details

Date: 17 March 2026
Orbit: 809 x 812 km, 99.0° (Epoch: 15 April)

Event Time Altitude Azimuth Distance (km) Brightness Sun altitude
Rises 11:41:16 0° 23° (NNE) 3,343 12.5 -17.9°
Reaches altitude 10° 11:44:00 10° 36° (NE) 2,406 11.9 -17.5°
Maximum altitude 11:48:25 26° 93° (E) 1,551 10.8 -16.9°
Drops below altitude 10° 11:52:48 10° 149° (SSE) 2,391 11.2 -16.2°
Sets 11:55:30 0° 162° (SSE) 3,317 11.8 -15.9°
